Location: Ford County Road and Bridge Department
(37.7686°N, 99.9762°W)
Time: 22:28:42
(UTC+00:00)

LightSail 2 - Visible Passes

Search period start: 06 April 2020 00:00
Search period end: 16 April 2020 00:00
Orbit: 694 x 724 km, 24.0° (Epoch: 06 April)

Date Brightness Start Highest point End Pass type
(mag) Time Alt. Az. Time Alt. Az. Time Alt. Az.
06 Apr 7.3 11:23:28 10° SSW 11:25:45 13° SSE 11:28:02 10° SE visible
07 Apr 7.4 10:26:21 11° S 10:26:44 11° SSE 10:27:59 10° SSE visible
08 Apr 7.1 11:09:32 10° SSW 11:12:17 15° S 11:15:11 10° SE visible
09 Apr 7.2 10:13:49 14° SSE 10:13:49 14° SSE 10:15:45 10° SE visible
10 Apr 6.9 10:56:58 14° SSW 10:58:49 16° S 11:01:56 10° SE visible
11 Apr 7.2 10:01:16 14° SSE 10:01:16 14° SSE 10:02:45 10° SE visible
11 Apr 7.0 11:41:32 10° SW 11:44:23 15° S 11:47:16 10° SSE visible
12 Apr 6.8 10:44:27 16° SSW 10:45:19 16° S 10:48:24 10° SE visible
13 Apr 7.4 09:48:48 12° SSE 09:48:48 12° SSE 09:49:23 10° SE visible
13 Apr 7.1 11:28:39 10° SW 11:30:51 13° SSW 11:33:03 10° SSE visible
14 Apr 7.0 10:32:05 15° S 10:32:05 15° S 10:34:31 10° SSE visible
